Showing default

SHIYAN 25 (SY-25), 57047

Orbit data source: Space-Track

SHIYAN 25 (SY-25), 57047 is a payload satellite owned by DFH (CN) in SSO that was launched on Tue, 20 Jun 2023 UTC via a CHANG ZHENG 6 launch vehicle from the Taiyaun Space Center, China (TSC). Payload-class satellites include a variety of spacecraft equipped with specific instruments for various scientific and technological missions. These include communications satellites like Starlink; space stations such as the ISS; scientific satellites like the Hubble; Earth observation satellites from companies like Planet Labs, Umbra, and HawkEye 360; GPS; miniature CubeSats for education and research; and military/defense satellites.

Not visible in the next 10 days
Identifier
57047, 2023-087A
Orbit
SSO
Country
Flag of CNCN / PRC
Related business
Manufacturer
DFH
Mission
Operational Civil Technology
Bus & Motor
Unknown
Mass
~100 kg wet, 100 kg dry
Launch date (UTC)
2023-06-20 (3 years ago)
Launch vehicle
CHANG ZHENG 6
Launch site
Taiyaun Space Center, China (TSC)
Object type
Payload
Rocket body
Debris
Shape & HBR
Box + 2 Pan, 1.0 m
Radar Cross Section
0.833 m², Large (>1 m²)

Expand to show TLE details & history
Last TLE update: 8 hours ago

TLE from 8 hours ago
0 SHIYAN 25 (SY-25)
1 57047U 23087A   26173.10157301 -.00169952  12866-4 -31473-3 0  9992
2 57047  96.8196 235.6099 0009904 236.3789 123.6546 16.00948537175584
Epoch: 2026-06-22T02:26Z
TLE epoch observation values (Epoch: 2026-06-22T02:26:15.908Z)
Latitude
-0.00008°
Longitude
-71.2487°
Altitude
278.662 km
Speed
7.738 km/s
True Right ascension
15h 42m 26s
True Declination
0° 00' 00"
Sunlit
Object was in full shadow at epoch
Visualization orbit readout
Latitude
Unknown
Longitude
Unknown
Altitude
Unknown
Speed
Unknown
Apparent Right ascension
Unknown
Apparent Declination
Unknown
Sunlit
N/A
Visualization observer readout
Local Sidereal Time
21:50:06
Azimuth
Unknown
Elevation
Unknown
Doppler factor
Unknown
Orbital elements
Apogee altitude
275.208 km
Perigee altitude
262.042 km
Semi-major axis
6,646.762 km
Eccentricity
0.00099
Inclination
96.8196°
RAAN
235.6099°
Arg. of periapsis
236.3789°
True anomaly
123.749°
Mean anomaly
123.6546°
Eccentric anomaly
123.70181°
Mean motion
4.00524 °/min
Orbital period
89.88 mins
BSTAR
-0.00031473
Loading maneuver chart data...
Computing Atmospheric mass density...
Loading historical data...
Loading historical data...
Loading historical data...
Loading historical data...
Loading historical data...
Loading historical data...
Loading historical data...
Other satellites on launch #87 in the year 2023 (2023-06-20 UTC)

Documentation

Showing up to 5 results
|